| time (UTC) | temp C | wind direction | speed KPH | gust KPH | rain 1hr cm | rain 24hr cm | rain mn cm | humidity % | barometer mb |
| 20260506111557 | 7 | 256 | 0.0 | 4.8 | 0.00 | 1.60 | 0.18 | 94 | 1014.9 |
| 20260506110054 | 7 | 272 | 0.0 | 0.0 | 0.00 | 1.60 | 0.18 | 94 | 1014.2 |
| 20260506104559 | 7 | 272 | 0.0 | 1.6 | 0.00 | 1.68 | 0.18 | 94 | 1014.0 |
| 20260506103054 | 7 | 272 | 0.0 | 1.6 | 0.00 | 1.68 | 0.18 | 94 | 1013.3 |
| 20260506101552 | 7 | 276 | 0.0 | 4.8 | 0.00 | 1.68 | 0.18 | 94 | 1013.7 |
| 20260506100105 | 7 | 275 | 0.0 | 8.0 | 0.00 | 1.68 | 0.18 | 94 | 1013.4 |
| 20260506094550 | 7 | 316 | 1.6 | 4.8 | 0.00 | 1.70 | 0.18 | 94 | 1013.5 |
| 20260506093049 | 7 | 313 | 0.0 | 3.2 | 0.00 | 1.70 | 0.18 | 94 | 1013.3 |
| 20260506091553 | 7 | 317 | 0.0 | 3.2 | 0.00 | 1.70 | 0.18 | 94 | 1013.4 |
| 20260506090047 | 7 | 257 | 3.2 | 11.3 | 0.00 | 1.70 | 0.18 | 94 | 1013.9 |
| 20260506084544 | 7 | 261 | 0.0 | 9.7 | 0.03 | 1.70 | 0.18 | 94 | 1013.5 |
| 20260506083044 | 7 | 290 | 0.0 | 6.4 | 0.03 | 1.70 | 0.18 | 94 | 1013.4 |
| 20260506081543 | 7 | 248 | 0.0 | 6.4 | 0.03 | 1.70 | 0.18 | 94 | 1013.5 |
| 20260506073038 | 7 | 340 | 0.0 | 3.2 | 0.05 | 1.68 | 0.15 | 94 | 1012.9 |
| 20260506071537 | 7 | 272 | 0.0 | 6.4 | 0.05 | 1.68 | 0.15 | 94 | 1013.2 |
| 20260506061531 | 7 | 355 | 0.0 | 0.0 | 0.08 | 1.63 | 0.10 | 93 | 1013.0 |
| 20260506044529 | 7 | 333 | 0.0 | 0.0 | 0.03 | 1.52 | 1.52 | 93 | 1012.5 |
| 20260506043022 | 7 | 289 | 0.0 | 0.0 | 0.03 | 1.50 | 1.50 | 93 | 1012.5 |
| 20260506041521 | 7 | 290 | 0.0 | 1.6 | 0.03 | 1.50 | 1.50 | 93 | 1012.8 |
| 20260506040020 | 7 | 233 | 0.0 | 4.8 | 0.03 | 1.50 | 1.50 | 93 | 1012.8 |
| 20260506034520 | 7 | 279 | 0.0 | 3.2 | 0.03 | 1.50 | 1.50 | 93 | 1013.1 |
| 20260506033023 | 7 | 37 | 0.0 | 1.6 | 0.00 | 1.45 | 1.45 | 93 | 1013.1 |
| 20260506031527 | 7 | 37 | 0.0 | 1.6 | 0.00 | 1.45 | 1.45 | 93 | 1012.3 |
| 20260506030037 | 7 | 37 | 0.0 | 3.2 | 0.03 | 1.45 | 1.45 | 93 | 1012.3 |
| 20260506024523 | 6 | 27 | 0.0 | 4.8 | 0.10 | 1.45 | 1.45 | 93 | 1011.8 |
| 20260506023013 | 6 | 300 | 0.0 | 3.2 | 0.13 | 1.45 | 1.45 | 93 | 1012.4 |
| 20260506021511 | 6 | 19 | 0.0 | 1.6 | 0.23 | 1.45 | 1.45 | 93 | 1012.0 |
| 20260506020010 | 6 | 266 | 0.0 | 1.6 | 0.23 | 1.42 | 1.42 | 93 | 1012.2 |
| 20260506014509 | 7 | 17 | 0.0 | 3.2 | 0.25 | 1.37 | 1.37 | 92 | 1012.0 |
| 20260506013006 | 6 | 106 | 1.6 | 9.7 | 0.28 | 1.32 | 1.32 | 92 | 1010.5 |
| 20260506011504 | 6 | 5 | 0.0 | 6.4 | 0.23 | 1.24 | 1.24 | 92 | 1011.4 |
| 20260506010005 | 7 | 28 | 0.0 | 9.7 | 0.20 | 1.22 | 1.22 | 92 | 1011.3 |
| 20260506004559 | 7 | 16 | 0.0 | 14.5 | 0.15 | 1.12 | 1.12 | 92 | 1011.0 |
| 20260506003057 | 7 | 23 | 4.8 | 12.9 | 0.13 | 1.04 | 1.04 | 92 | 1010.9 |
| 20260506001558 | 7 | 24 | 3.2 | 8.0 | 0.28 | 1.02 | 1.02 | 92 | 1010.4 |
| 20260506000058 | 7 | 22 | 3.2 | 9.7 | 0.30 | 1.02 | 1.02 | 92 | 1010.4 |
| 20260505234551 | 7 | 5 | 1.6 | 8.0 | 0.25 | 0.97 | 0.97 | 91 | 1010.4 |
| 20260505233057 | 7 | 31 | 3.2 | 16.1 | 0.25 | 0.91 | 0.91 | 91 | 1009.8 |
| 20260505231547 | 8 | 42 | 3.2 | 14.5 | 0.10 | 0.71 | 0.71 | 91 | 1010.4 |
| 20260505230049 | 8 | 348 | 0.0 | 14.5 | 0.08 | 0.71 | 0.71 | 91 | 1009.8 |
| 20260505224547 | 8 | 333 | 1.6 | 14.5 | 0.08 | 0.71 | 0.71 | 90 | 1009.7 |
| 20260505223044 | 8 | 19 | 0.0 | 8.0 | 0.03 | 0.66 | 0.66 | 90 | 1009.2 |
| 20260505221541 | 8 | 17 | 0.0 | 6.4 | 0.00 | 0.64 | 0.64 | 90 | 1009.5 |
| 20260505220044 | 8 | 12 | 0.0 | 11.3 | 0.03 | 0.64 | 0.64 | 90 | 1009.3 |
| 20260505214540 | 8 | 29 | 1.6 | 14.5 | 0.03 | 0.64 | 0.64 | 90 | 1009.6 |
| 20260505213045 | 8 | 42 | 1.6 | 12.9 | 0.03 | 0.64 | 0.64 | 90 | 1009.6 |
| 20260505211542 | 8 | 11 | 4.8 | 14.5 | 0.03 | 0.64 | 0.64 | 89 | 1009.6 |
| 20260505210035 | 8 | 58 | 1.6 | 9.7 | 0.00 | 0.61 | 0.61 | 88 | 1010.2 |
| 20260505204535 | 8 | 42 | 0.0 | 16.1 | 0.00 | 0.61 | 0.61 | 87 | 1010.1 |
| 20260505203037 | 8 | 332 | 3.2 | 12.9 | 0.00 | 0.61 | 0.61 | 86 | 1010.1 |
| 20260505201534 | 8 | 24 | 9.7 | 24.1 | 0.00 | 0.61 | 0.61 | 86 | 1009.7 |
| 20260505200029 | 8 | 355 | 1.6 | 19.3 | 0.00 | 0.61 | 0.61 | 85 | 1010.5 |
| 20260505194528 | 9 | 11 | 4.8 | 17.7 | 0.00 | 0.61 | 0.61 | 84 | 1010.3 |
| 20260505193026 | 9 | 342 | 4.8 | 16.1 | 0.00 | 0.61 | 0.61 | 82 | 1010.5 |
| 20260505191527 | 10 | 350 | 3.2 | 19.3 | 0.00 | 0.61 | 0.61 | 80 | 1010.2 |
| 20260505190035 | 10 | 5 | 9.7 | 22.5 | 0.00 | 0.61 | 0.61 | 78 | 1009.9 |
| 20260505184528 | 10 | 344 | 3.2 | 19.3 | 0.00 | 0.84 | 0.61 | 79 | 1009.7 |
| 20260505183026 | 11 | 75 | 0.0 | 8.0 | 0.00 | 0.84 | 0.61 | 81 | 1010.4 |
| 20260505181523 | 11 | 16 | 0.0 | 12.9 | 0.00 | 0.84 | 0.61 | 81 | 1010.3 |
| 20260505180033 | 11 | 320 | 0.0 | 20.9 | 0.00 | 0.84 | 0.61 | 80 | 1010.5 |
| 20260505174521 | 11 | 10 | 0.0 | 16.1 | 0.03 | 0.86 | 0.61 | 80 | 1010.5 |
| 20260505173019 | 11 | 283 | 0.0 | 1.6 | 0.03 | 0.86 | 0.61 | 81 | 1010.5 |
| 20260505171519 | 11 | 355 | 0.0 | 6.4 | 0.03 | 0.86 | 0.61 | 79 | 1010.5 |
| 20260505170018 | 12 | 19 | 0.0 | 8.0 | 0.03 | 0.86 | 0.61 | 77 | 1010.0 |
| 20260505164515 | 12 | 61 | 0.0 | 6.4 | 0.00 | 0.86 | 0.58 | 75 | 1009.6 |
| 20260505163015 | 12 | 22 | 0.0 | 11.3 | 0.00 | 0.86 | 0.58 | 73 | 1009.7 |
| 20260505161516 | 12 | 87 | 0.0 | 8.0 | 0.00 | 0.86 | 0.58 | 75 | 1009.6 |
| 20260505153011 | 11 | 19 | 0.0 | 17.7 | 0.00 | 0.86 | 0.58 | 79 | 1009.1 |
| 20260505151510 | 11 | 340 | 6.4 | 19.3 | 0.00 | 0.86 | 0.58 | 82 | 1009.1 |
| 20260505130111 | 8 | 91 | 8.0 | 14.5 | 0.18 | 0.81 | 0.53 | 89 | 1008.4 |
| 20260505124604 | 9 | 342 | 1.6 | 17.7 | 0.30 | 0.71 | 0.46 | 87 | 1009.9 |
| 20260505123109 | 9 | 11 | 6.4 | 22.5 | 0.25 | 0.64 | 0.36 | 87 | 1009.4 |
| 20260505121549 | 10 | 10 | 9.7 | 24.1 | 0.25 | 0.64 | 0.36 | 88 | 1009.0 |
| 20260505120054 | 10 | 21 | 8.0 | 16.1 | 0.25 | 0.64 | 0.36 | 87 | 1008.7 |
| 20260505114546 | 11 | 319 | 3.2 | 20.9 | 0.13 | 0.43 | 0.15 | 85 | 1008.8 |
| 20260505113038 | 11 | 259 | 1.6 | 19.3 | 0.08 | 0.38 | 0.10 | 85 | 1007.8 |